INTELSAT 35E (IS-35E)

Last updated on Mon Feb 16 2026 00:02:50 GMT+0000 (Coordinated Universal Time)

1 42818U 17041A 26046.39096316 -.00000233 00000+0 00000+0 0 9998 2 42818 0.0332 249.6497 0002483 87.7324 274.2349 1.00271636 31597
UTC large
Height (km)
Speed (km/s)
/
Latitude / Longitude
Inclination (degrees)
Orbital Period (minutes)
Azimuth
Elevation
Range (km)
Doppler Factor

Next 0 passes for location: London (51.5072 / 0.1276)

Sorry there are no passes over London.